User: anonymous   Login
Location: Bittelbronn
(48.4454°N, 8.5870°E)
Time: 19:33:47
(UTC+00:00)
Language:

Cosmos 2151 Rocket - Orbit

View from above orbital plane
View from above orbital plane
View from above satellite
View from above satellite

Ground track
Ground track

The orbit data is extracted from the following two-line orbital elements,

1 21423U 91042B   24199.56432571  .00000943  00000-0  11894-3 0  9998
2 21423  82.4921  62.6116 0018553  55.0771 305.2182 14.80836157764224
Epoch (UTC): 17 July 2024 13:32:37
Eccentricity: 0.0018553
inclination: 82.4921°
perigee height: 613 km
apogee height: 639 km
right ascension of ascending node: 62.6116°
argument of perigee: 55.0771°
revolutions per day: 14.80836157
mean anomaly at epoch: 305.2182°
orbit number at epoch: 76422

The dashed part of the orbit path shows where the satellite is in the earth's shadow,  

DLR